CXA8866 ZSHC-ZSQZ

Flight info

Callsign CXA8866
Flight time 1h 13m
Altitude 36100
Route UGAGO8D UGAGO A470 ATSAB
Aircraft A321/M-SDE3FGHIRWY/LB1

Departure

Time 2026-05-04 14:50
Airport Hangzhou Xiaoshan International Airport (ZSHC)

Arrival

Time 2026-05-04 16:04
Airport Quanzhou Jinjiang International Airport (ZSQZ)
Time Latitude Longitude Altitude Speed Heading
2026-05-04 14:20 30.24013 120.42688 31 ft 0 kts 63°
2026-05-04 14:34 30.24008 120.42676 31 ft 3 kts 61°
2026-05-04 14:34 30.24001 120.42662 31 ft 2 kts 62°
2026-05-04 14:35 30.23992 120.42646 31 ft 3 kts 38°
2026-05-04 14:35 30.23979 120.42638 31 ft 3 kts 339°
2026-05-04 14:35 30.23964 120.42650 31 ft 3 kts 307°
2026-05-04 14:35 30.23958 120.42661 30 ft 1 kts 305°
2026-05-04 14:37 30.23978 120.42638 29 ft 8 kts 323°
2026-05-04 14:38 30.24021 120.42610 32 ft 7 kts 332°
2026-05-04 14:38 30.24060 120.42587 30 ft 6 kts 333°
2026-05-04 14:38 30.24093 120.42568 31 ft 5 kts 333°
2026-05-04 14:38 30.24122 120.42551 32 ft 4 kts 333°
2026-05-04 14:39 30.24146 120.42538 32 ft 4 kts 336°
2026-05-04 14:39 30.24199 120.42564 32 ft 12 kts 58°
2026-05-04 14:39 30.24231 120.42633 32 ft 9 kts 62°
2026-05-04 14:40 30.24282 120.42745 32 ft 7 kts 62°
2026-05-04 14:40 30.24304 120.42795 32 ft 7 kts 62°
2026-05-04 14:40 30.24331 120.42848 31 ft 10 kts 58°
2026-05-04 14:40 30.24364 120.42919 32 ft 10 kts 63°
2026-05-04 14:41 30.24394 120.42986 32 ft 9 kts 63°
2026-05-04 14:41 30.24421 120.43049 32 ft 8 kts 63°
2026-05-04 14:41 30.24483 120.43225 32 ft 14 kts 99°
2026-05-04 14:42 30.24383 120.43354 32 ft 9 kts 152°
2026-05-04 14:42 30.24331 120.43385 32 ft 8 kts 153°
2026-05-04 14:42 30.24262 120.43425 32 ft 12 kts 153°
2026-05-04 14:43 30.24190 120.43469 31 ft 12 kts 152°
2026-05-04 14:43 30.24119 120.43512 30 ft 11 kts 152°
2026-05-04 14:43 30.24050 120.43552 32 ft 11 kts 153°
2026-05-04 14:43 30.23984 120.43592 32 ft 11 kts 152°
2026-05-04 14:44 30.23936 120.43645 32 ft 9 kts 107°
2026-05-04 14:44 30.23907 120.43711 32 ft 9 kts 143°
2026-05-04 14:44 30.23852 120.43743 32 ft 9 kts 153°
2026-05-04 14:44 30.23786 120.43783 32 ft 17 kts 152°
2026-05-04 14:45 30.23661 120.43856 32 ft 20 kts 153°
2026-05-04 14:45 30.23537 120.43928 32 ft 20 kts 153°
2026-05-04 14:45 30.23422 120.44007 32 ft 17 kts 120°
2026-05-04 14:45 30.23450 120.44132 32 ft 16 kts 63°
2026-05-04 14:46 30.23500 120.44247 32 ft 16 kts 63°
2026-05-04 14:46 30.23548 120.44358 32 ft 15 kts 63°
2026-05-04 14:46 30.23597 120.44465 31 ft 15 kts 63°
2026-05-04 14:46 30.23644 120.44569 32 ft 14 kts 63°
2026-05-04 14:47 30.23688 120.44671 32 ft 14 kts 64°
2026-05-04 14:47 30.23731 120.44771 32 ft 14 kts 64°
2026-05-04 14:47 30.23773 120.44869 32 ft 14 kts 64°
2026-05-04 14:47 30.23813 120.44964 32 ft 13 kts 64°
2026-05-04 14:48 30.23778 120.45037 31 ft 6 kts 154°
2026-05-04 14:48 30.23772 120.45040 31 ft 0 kts 154°
2026-05-04 14:48 30.23735 120.45060 30 ft 11 kts 154°
2026-05-04 14:49 30.23668 120.45047 30 ft 10 kts 224°
2026-05-04 14:49 30.23650 120.45016 30 ft 0 kts 242°
2026-05-04 14:49 30.23640 120.44994 30 ft 21 kts 242°
2026-05-04 14:50 30.23453 120.44572 33 ft 94 kts 243°
2026-05-04 14:50 30.23072 120.43713 34 ft 147 kts 243°
2026-05-04 14:50 30.22553 120.42527 200 ft 173 kts 244°
2026-05-04 14:50 30.22031 120.41294 865 ft 168 kts 242°
2026-05-04 14:51 30.21376 120.40212 1519 ft 164 kts 226°
2026-05-04 14:51 30.20573 120.39243 1945 ft 174 kts 223°
2026-05-04 14:51 30.19667 120.38191 2108 ft 195 kts 223°
2026-05-04 14:51 30.18674 120.37023 2250 ft 214 kts 224°
2026-05-04 14:52 30.17579 120.35709 2417 ft 241 kts 225°
2026-05-04 14:52 30.16397 120.34262 3081 ft 252 kts 226°
2026-05-04 14:52 30.15180 120.32752 3689 ft 261 kts 227°
2026-05-04 14:52 30.13941 120.31202 3854 ft 262 kts 227°
2026-05-04 14:53 30.12725 120.29670 3894 ft 262 kts 227°
2026-05-04 14:53 30.11496 120.28116 3898 ft 262 kts 227°
2026-05-04 14:53 30.10266 120.26562 3898 ft 262 kts 227°
2026-05-04 14:53 30.09039 120.25007 3899 ft 262 kts 227°
2026-05-04 14:54 30.07892 120.23378 3903 ft 262 kts 237°
2026-05-04 14:54 30.07086 120.21492 3903 ft 263 kts 250°
2026-05-04 14:54 30.06601 120.19457 3903 ft 263 kts 255°
2026-05-04 14:54 30.06142 120.17412 3902 ft 263 kts 254°
2026-05-04 14:55 30.05677 120.15366 3896 ft 263 kts 254°
2026-05-04 14:55 30.05218 120.13351 3895 ft 263 kts 254°
2026-05-04 14:55 30.04752 120.11307 3896 ft 263 kts 254°
2026-05-04 14:55 30.04287 120.09270 3891 ft 262 kts 254°
2026-05-04 14:56 30.03822 120.07238 3899 ft 262 kts 254°
2026-05-04 14:56 30.03356 120.05202 3900 ft 262 kts 254°
2026-05-04 14:56 30.02889 120.03168 3898 ft 262 kts 254°
2026-05-04 14:56 30.02424 120.01135 3907 ft 263 kts 253°
2026-05-04 14:57 30.01756 119.99156 4615 ft 265 kts 242°
2026-05-04 14:57 30.00842 119.97291 5493 ft 269 kts 240°
2026-05-04 14:57 29.99906 119.95396 6316 ft 275 kts 240°
2026-05-04 14:57 29.98952 119.93464 7108 ft 280 kts 240°
2026-05-04 14:58 29.98001 119.91536 7915 ft 283 kts 241°
2026-05-04 14:58 29.97020 119.89553 8718 ft 287 kts 241°
2026-05-04 14:58 29.96025 119.87544 9525 ft 290 kts 241°
2026-05-04 14:58 29.95015 119.85508 10243 ft 298 kts 241°
2026-05-04 14:59 29.93946 119.83357 10478 ft 321 kts 241°
2026-05-04 14:59 29.92796 119.81043 10664 ft 344 kts 240°
2026-05-04 14:59 29.90335 119.76116 11770 ft 360 kts 240°
2026-05-04 15:00 29.89081 119.73606 12514 ft 363 kts 240°
2026-05-04 15:00 29.87771 119.71112 13264 ft 366 kts 234°
2026-05-04 15:00 29.86068 119.68980 13971 ft 370 kts 221°
2026-05-04 15:01 29.81438 119.66388 15287 ft 379 kts 193°
2026-05-04 15:01 29.78793 119.66104 15908 ft 385 kts 185°
2026-05-04 15:01 29.76109 119.65978 16528 ft 388 kts 186°
2026-05-04 15:01 29.73402 119.65825 17132 ft 391 kts 187°
2026-05-04 15:02 29.70676 119.65642 17741 ft 394 kts 188°
2026-05-04 15:02 29.67928 119.65445 18345 ft 397 kts 188°
2026-05-04 15:02 29.65158 119.65242 18869 ft 400 kts 188°
2026-05-04 15:02 29.62371 119.65041 19412 ft 402 kts 188°
2026-05-04 15:03 29.59604 119.64891 19718 ft 404 kts 187°
2026-05-04 15:03 29.56798 119.64803 19791 ft 403 kts 186°
2026-05-04 15:03 29.53996 119.64753 19823 ft 403 kts 186°
2026-05-04 15:03 29.51195 119.64666 19817 ft 402 kts 187°
2026-05-04 15:04 29.48404 119.64528 19817 ft 401 kts 188°
2026-05-04 15:04 29.45539 119.64351 19820 ft 401 kts 188°
2026-05-04 15:04 29.42830 119.64169 19822 ft 401 kts 188°
2026-05-04 15:04 29.40041 119.63977 19820 ft 401 kts 188°
2026-05-04 15:05 29.37296 119.63790 19824 ft 401 kts 188°
2026-05-04 15:05 29.34507 119.63606 19821 ft 401 kts 188°
2026-05-04 15:05 29.31721 119.63429 19817 ft 401 kts 188°
2026-05-04 15:05 29.28939 119.63260 19825 ft 400 kts 188°
2026-05-04 15:06 29.26158 119.63096 19821 ft 400 kts 188°
2026-05-04 15:06 29.23361 119.62929 20201 ft 404 kts 188°
2026-05-04 15:06 29.20552 119.62759 20748 ft 405 kts 188°
2026-05-04 15:07 29.14900 119.62413 21851 ft 408 kts 189°
2026-05-04 15:07 29.12060 119.62239 22375 ft 410 kts 189°
2026-05-04 15:07 29.09246 119.62068 22880 ft 412 kts 189°
2026-05-04 15:07 29.06380 119.61893 23355 ft 413 kts 190°
2026-05-04 15:08 29.03500 119.61715 23831 ft 415 kts 190°
2026-05-04 15:08 29.00610 119.61531 24224 ft 417 kts 191°
2026-05-04 15:08 28.97709 119.61348 24610 ft 419 kts 191°
2026-05-04 15:08 28.94787 119.61165 24975 ft 421 kts 191°
2026-05-04 15:09 28.91854 119.60981 25385 ft 423 kts 191°
2026-05-04 15:09 28.88905 119.60797 25656 ft 425 kts 191°
2026-05-04 15:09 28.85952 119.60616 25733 ft 426 kts 191°
2026-05-04 15:10 28.80073 119.60262 25744 ft 426 kts 191°
2026-05-04 15:10 28.77141 119.60083 25741 ft 427 kts 191°
2026-05-04 15:10 28.71221 119.59713 25744 ft 426 kts 191°
2026-05-04 15:11 28.68262 119.59531 25748 ft 426 kts 191°
2026-05-04 15:11 28.65309 119.59348 25746 ft 424 kts 191°
2026-05-04 15:11 28.62365 119.59167 25747 ft 424 kts 191°
2026-05-04 15:11 28.59418 119.58982 25754 ft 425 kts 191°
2026-05-04 15:12 28.56466 119.58795 25746 ft 425 kts 191°
2026-05-04 15:12 28.53514 119.58610 25749 ft 426 kts 191°
2026-05-04 15:12 28.50553 119.58429 25751 ft 426 kts 191°
2026-05-04 15:12 28.47633 119.58254 25755 ft 426 kts 191°
2026-05-04 15:13 28.44675 119.58077 25757 ft 426 kts 191°
2026-05-04 15:13 28.41720 119.57906 25752 ft 425 kts 191°
2026-05-04 15:13 28.38760 119.57740 25754 ft 426 kts 191°
2026-05-04 15:13 28.35800 119.57581 25760 ft 426 kts 191°
2026-05-04 15:14 28.32843 119.57424 25733 ft 425 kts 191°
2026-05-04 15:14 28.29892 119.57265 25756 ft 424 kts 191°
2026-05-04 15:14 28.26945 119.57104 25760 ft 424 kts 191°
2026-05-04 15:14 28.23998 119.56942 25761 ft 424 kts 191°
2026-05-04 15:15 28.21092 119.56780 25759 ft 424 kts 191°
2026-05-04 15:15 28.18149 119.56615 25770 ft 424 kts 191°
2026-05-04 15:15 28.15208 119.56451 25768 ft 423 kts 191°
2026-05-04 15:16 28.09320 119.56127 25767 ft 424 kts 191°
2026-05-04 15:16 28.06364 119.56024 25751 ft 424 kts 189°
2026-05-04 15:16 28.00451 119.55959 25773 ft 425 kts 188°
2026-05-04 15:17 27.97497 119.55949 25774 ft 425 kts 188°
2026-05-04 15:17 27.91612 119.55897 25776 ft 424 kts 189°
2026-05-04 15:17 27.88697 119.55864 25777 ft 425 kts 189°
2026-05-04 15:18 27.85740 119.55842 25778 ft 425 kts 189°
2026-05-04 15:18 27.82788 119.55828 25779 ft 424 kts 189°
2026-05-04 15:18 27.79833 119.55816 25779 ft 425 kts 189°
2026-05-04 15:19 27.73927 119.55789 25780 ft 425 kts 189°
2026-05-04 15:19 27.70989 119.55771 25778 ft 424 kts 189°
2026-05-04 15:19 27.65084 119.55732 25778 ft 424 kts 189°
2026-05-04 15:20 27.62170 119.55715 25779 ft 424 kts 189°
2026-05-04 15:20 27.59217 119.55698 25780 ft 425 kts 189°
2026-05-04 15:20 27.56263 119.55682 25763 ft 425 kts 189°
2026-05-04 15:20 27.53309 119.55667 25784 ft 425 kts 189°
2026-05-04 15:21 27.50355 119.55652 25783 ft 425 kts 189°
2026-05-04 15:21 27.47401 119.55635 25783 ft 425 kts 189°
2026-05-04 15:21 27.41505 119.55604 25786 ft 425 kts 188°
2026-05-04 15:22 27.38550 119.55598 25787 ft 425 kts 188°
2026-05-04 15:22 27.35599 119.55595 25787 ft 425 kts 188°
2026-05-04 15:22 27.29700 119.55590 25757 ft 425 kts 188°
2026-05-04 15:23 27.26782 119.55590 25784 ft 426 kts 188°
2026-05-04 15:23 27.23813 119.55588 25784 ft 427 kts 188°
2026-05-04 15:23 27.20847 119.55576 25787 ft 426 kts 189°
2026-05-04 15:23 27.17879 119.55555 25789 ft 427 kts 189°
2026-05-04 15:24 27.11944 119.55510 25785 ft 427 kts 189°
2026-05-04 15:24 27.06011 119.55464 25789 ft 427 kts 189°
2026-05-04 15:25 27.03045 119.55437 25765 ft 426 kts 189°
2026-05-04 15:25 27.00077 119.55412 25781 ft 427 kts 189°
2026-05-04 15:25 26.97142 119.55389 25780 ft 427 kts 188°
2026-05-04 15:26 26.91198 119.55356 25783 ft 427 kts 188°
2026-05-04 15:26 26.88228 119.55342 25784 ft 428 kts 188°
2026-05-04 15:26 26.82283 119.55311 25787 ft 428 kts 189°
2026-05-04 15:27 26.79311 119.55292 25783 ft 427 kts 189°
2026-05-04 15:27 26.74372 119.55257 25778 ft 426 kts 188°
2026-05-04 15:28 26.67480 119.55213 25778 ft 426 kts 188°
2026-05-04 15:28 26.64519 119.55195 25776 ft 426 kts 188°
2026-05-04 15:28 26.58582 119.55154 25773 ft 428 kts 189°
2026-05-04 15:29 26.55606 119.55136 25771 ft 427 kts 188°
2026-05-04 15:30 26.43741 119.55063 25774 ft 426 kts 188°
2026-05-04 15:30 26.34877 119.55001 25772 ft 426 kts 188°
2026-05-04 15:31 26.29955 119.54943 25768 ft 426 kts 189°
2026-05-04 15:31 26.25991 119.54890 25767 ft 426 kts 189°
2026-05-04 15:32 26.17466 119.53283 25770 ft 409 kts 204°
2026-05-04 15:32 26.12939 119.51724 25761 ft 410 kts 204°
2026-05-04 15:33 26.06596 119.49572 25760 ft 410 kts 204°
2026-05-04 15:34 25.99341 119.47116 25767 ft 409 kts 204°
2026-05-04 15:34 25.95694 119.45875 25768 ft 410 kts 204°
2026-05-04 15:34 25.91159 119.44329 25765 ft 411 kts 204°
2026-05-04 15:35 25.85695 119.42473 25762 ft 410 kts 204°
2026-05-04 15:35 25.82963 119.41546 25762 ft 410 kts 204°
2026-05-04 15:35 25.79357 119.40322 25759 ft 409 kts 204°
2026-05-04 15:36 25.74958 119.38417 25745 ft 400 kts 215°
2026-05-04 15:36 25.72694 119.36754 25508 ft 392 kts 224°
2026-05-04 15:36 25.70735 119.34688 25285 ft 388 kts 230°
2026-05-04 15:37 25.68878 119.32507 25047 ft 389 kts 230°
2026-05-04 15:37 25.67022 119.30314 24822 ft 390 kts 230°
2026-05-04 15:37 25.65164 119.28119 24598 ft 390 kts 230°
2026-05-04 15:37 25.63308 119.25928 24376 ft 390 kts 230°
2026-05-04 15:38 25.61452 119.23745 24164 ft 389 kts 230°
2026-05-04 15:38 25.59592 119.21562 23938 ft 390 kts 230°
2026-05-04 15:38 25.57726 119.19373 23713 ft 390 kts 230°
2026-05-04 15:38 25.55888 119.17218 23461 ft 391 kts 230°
2026-05-04 15:39 25.54024 119.15038 23192 ft 388 kts 230°
2026-05-04 15:39 25.52172 119.12876 22913 ft 387 kts 230°
2026-05-04 15:39 25.48490 119.08573 22403 ft 383 kts 230°
2026-05-04 15:40 25.46665 119.06435 22150 ft 381 kts 230°
2026-05-04 15:40 25.44843 119.04305 21900 ft 380 kts 230°
2026-05-04 15:40 25.43029 119.02186 21643 ft 379 kts 229°
2026-05-04 15:40 25.41218 119.00073 21404 ft 378 kts 229°
2026-05-04 15:41 25.39415 118.97970 21161 ft 376 kts 229°
2026-05-04 15:41 25.37621 118.95876 20911 ft 375 kts 229°
2026-05-04 15:41 25.35853 118.93815 20670 ft 374 kts 230°
2026-05-04 15:41 25.34066 118.91732 20454 ft 373 kts 229°
2026-05-04 15:42 25.32302 118.89644 20208 ft 370 kts 230°
2026-05-04 15:42 25.30590 118.87578 19971 ft 358 kts 230°
2026-05-04 15:42 25.28950 118.85578 19741 ft 346 kts 231°
2026-05-04 15:42 25.27365 118.83639 19507 ft 334 kts 231°
2026-05-04 15:43 25.25829 118.81763 19273 ft 324 kts 231°
2026-05-04 15:43 25.24341 118.79947 19042 ft 314 kts 231°
2026-05-04 15:43 25.23090 118.78088 18822 ft 300 kts 246°
2026-05-04 15:43 25.22642 118.75891 18600 ft 293 kts 269°
2026-05-04 15:44 25.23110 118.73719 18364 ft 294 kts 292°
2026-05-04 15:44 25.24169 118.71801 18109 ft 290 kts 296°
2026-05-04 15:44 25.25245 118.69946 17846 ft 284 kts 296°
2026-05-04 15:44 25.26158 118.68074 17592 ft 270 kts 284°
2026-05-04 15:45 25.26566 118.66097 17338 ft 259 kts 271°
2026-05-04 15:45 25.26640 118.64135 17094 ft 253 kts 269°
2026-05-04 15:45 25.26550 118.62253 16847 ft 246 kts 255°
2026-05-04 15:45 25.25818 118.60570 16598 ft 246 kts 233°
2026-05-04 15:46 25.24500 118.59391 16357 ft 255 kts 211°
2026-05-04 15:46 25.22776 118.58852 16108 ft 258 kts 199°
2026-05-04 15:46 25.21047 118.58473 15901 ft 246 kts 199°
2026-05-04 15:46 25.19401 118.58115 15686 ft 238 kts 199°
2026-05-04 15:47 25.17782 118.57756 15448 ft 236 kts 199°
2026-05-04 15:47 25.16176 118.57395 15206 ft 235 kts 199°
2026-05-04 15:47 25.14596 118.57037 14971 ft 234 kts 199°
2026-05-04 15:47 25.13001 118.56677 14734 ft 234 kts 199°
2026-05-04 15:48 25.11410 118.56316 14495 ft 233 kts 199°
2026-05-04 15:48 25.09823 118.55958 14266 ft 233 kts 199°
2026-05-04 15:48 25.06689 118.55264 13777 ft 218 kts 199°
2026-05-04 15:49 25.05270 118.54958 13506 ft 199 kts 199°
2026-05-04 15:49 25.03948 118.54670 13247 ft 191 kts 200°
2026-05-04 15:49 25.02656 118.54381 12995 ft 189 kts 200°
2026-05-04 15:49 25.01416 118.54105 12774 ft 172 kts 200°
2026-05-04 15:50 25.00302 118.53860 12528 ft 161 kts 201°
2026-05-04 15:50 24.99216 118.53614 12283 ft 158 kts 201°
2026-05-04 15:50 24.98145 118.53369 12035 ft 157 kts 201°
2026-05-04 15:50 24.97079 118.53126 11787 ft 156 kts 201°
2026-05-04 15:51 24.96019 118.52885 11540 ft 155 kts 201°
2026-05-04 15:51 24.94966 118.52645 11228 ft 156 kts 201°
2026-05-04 15:51 24.93825 118.52373 10201 ft 184 kts 200°
2026-05-04 15:51 24.92486 118.52032 9009 ft 206 kts 198°
2026-05-04 15:52 24.91148 118.51732 8673 ft 184 kts 196°
2026-05-04 15:52 24.89975 118.51489 8524 ft 161 kts 196°
2026-05-04 15:52 24.88926 118.51269 8263 ft 152 kts 197°
2026-05-04 15:52 24.87891 118.51042 7936 ft 151 kts 197°
2026-05-04 15:53 24.86889 118.50719 7606 ft 149 kts 205°
2026-05-04 15:53 24.85953 118.50236 7276 ft 148 kts 212°
2026-05-04 15:53 24.85044 118.49691 6946 ft 149 kts 211°
2026-05-04 15:53 24.84129 118.49144 6630 ft 150 kts 210°
2026-05-04 15:54 24.83219 118.48598 6312 ft 147 kts 211°
2026-05-04 15:54 24.82316 118.48057 5958 ft 149 kts 210°
2026-05-04 15:54 24.81405 118.47509 5622 ft 150 kts 210°
2026-05-04 15:54 24.80482 118.46954 5286 ft 152 kts 208°
2026-05-04 15:55 24.79566 118.46404 4968 ft 153 kts 207°
2026-05-04 15:55 24.78628 118.45841 4592 ft 156 kts 206°
2026-05-04 15:55 24.77660 118.45259 4253 ft 159 kts 206°
2026-05-04 15:55 24.76695 118.44677 4016 ft 156 kts 205°
2026-05-04 15:56 24.75730 118.44097 4013 ft 160 kts 205°
2026-05-04 15:56 24.74754 118.43509 4005 ft 160 kts 205°
2026-05-04 15:56 24.73777 118.42920 3998 ft 160 kts 206°
2026-05-04 15:56 24.72796 118.42336 3997 ft 160 kts 203°
2026-05-04 15:57 24.71739 118.42046 4005 ft 155 kts 177°
2026-05-04 15:57 24.70707 118.42205 4014 ft 150 kts 155°
2026-05-04 15:57 24.69816 118.42745 4005 ft 144 kts 134°
2026-05-04 15:57 24.69176 118.43560 4004 ft 138 kts 115°
2026-05-04 15:58 24.68699 118.44454 3773 ft 135 kts 114°
2026-05-04 15:58 24.68223 118.45341 3471 ft 134 kts 113°
2026-05-04 15:58 24.67753 118.46218 3151 ft 133 kts 112°
2026-05-04 15:58 24.67285 118.47094 2826 ft 133 kts 112°
2026-05-04 15:59 24.66818 118.47969 2519 ft 133 kts 112°
2026-05-04 15:59 24.66463 118.48868 2215 ft 128 kts 95°
2026-05-04 15:59 24.66509 118.49824 1881 ft 128 kts 69°
2026-05-04 15:59 24.67004 118.50677 1937 ft 137 kts 43°
2026-05-04 16:00 24.67777 118.51248 2411 ft 133 kts 33°
2026-05-04 16:00 24.68586 118.51767 2416 ft 136 kts 33°
2026-05-04 16:00 24.69398 118.52287 2179 ft 135 kts 32°
2026-05-04 16:00 24.70203 118.52804 1975 ft 133 kts 31°
2026-05-04 16:01 24.70998 118.53314 1790 ft 132 kts 32°
2026-05-04 16:01 24.71782 118.53817 1611 ft 132 kts 31°
2026-05-04 16:01 24.72573 118.54326 1427 ft 132 kts 31°
2026-05-04 16:01 24.73363 118.54833 1260 ft 132 kts 30°
2026-05-04 16:02 24.74157 118.55343 1084 ft 131 kts 30°
2026-05-04 16:02 24.74959 118.55855 879 ft 133 kts 30°
2026-05-04 16:02 24.76550 118.56872 555 ft 132 kts 31°
2026-05-04 16:03 24.77351 118.57393 367 ft 133 kts 31°
2026-05-04 16:03 24.78147 118.57909 224 ft 132 kts 29°
2026-05-04 16:03 24.78926 118.58408 50 ft 129 kts 29°
2026-05-04 16:03 24.79578 118.58830 33 ft 82 kts 30°
2026-05-04 16:04 24.79912 118.59043 32 ft 21 kts 28°
2026-05-04 16:04 24.80063 118.58907 31 ft 18 kts 300°
2026-05-04 16:04 24.80105 118.58827 32 ft 7 kts 296°
2026-05-04 16:05 24.80126 118.58786 32 ft 0 kts 301°
2026-05-04 16:05 24.80128 118.58781 32 ft 0 kts 301°
2026-05-04 16:05 24.80129 118.58779 32 ft 0 kts 301°
2026-05-04 16:06 24.80131 118.58777 32 ft 0 kts 301°
2026-05-04 16:07 24.80130 118.58777 32 ft 0 kts 301°